Regional Weather Roundup
Issued by NWS Burlington, VT

Home | Current Version | Previous Version | Text Only | Print | Product List | Glossary On
Versions: 1 2 3 4 5 6 7 8 9 10 11 12 13 14 15 16 17 18 19 20 21 22 23 24 25 26 27 28 29 30 31 32 33 34 35 36 37 38 39 40 41 42 43 44 45 46 47 48 49 50
000
ASUS41 KBTV 282310
RWRBTV
VERMONT REGIONAL WEATHER ROUNDUP
NATIONAL WEATHER SERVICE BURLINGTON VT
700 PM EDT THU MAY 28 2015

NOTE: "FAIR" INDICATES FEW OR NO CLOUDS BELOW 12,000 FEET WITH NO
SIGNIFICANT WEATHER AND/OR OBSTRUCTIONS TO VISIBILITY.

* THESE REPORTS ARE NOT UNDER NWS QUALITY CONTROL AND/OR DO NOT
  REPORT WEATHER SUCH AS PRECIPITATION AND FOG.

VTZ001>019-290000-
_____VERMONT_____


CITY           SKY/WX    TMP DP  RH WIND       PRES   REMARKS
BURLINGTON     CLOUDY    67  55  65 NW7       30.18R
MONTPELIER     CLOUDY    63  54  72 W7        30.22R
MORRISVILLE    LGT RAIN  65  58  78 VRB6      30.19R
LYNDONVILLE*   CLOUDY    65  54  66 SW7       30.18R
MIDDLEBURY*    CLOUDY    67  56  67 N3        30.18R
RUTLAND*       CLOUDY    68  52  56 W8        30.19R
SPRINGFIELD    MOCLDY    71  51  49 NW7       30.18R
HIGHGATE*      MOCLDY    66  59  78 W7        30.16R
NEWPORT*       CLOUDY    63  58  85 W7        30.16R
BENNINGTON     MOCLDY    69  54  58 VRB5      30.20R
SUTTON*          N/A     63 N/A N/A MISG        N/A

_____LAKE CHAMPLAIN_____


CITY           SKY/WX    TMP DP  RH WIND       PRES   REMARKS

$$

NYZ007-026>031-035-052-083-290000-
_____NORTHERN NEW YORK_____


CITY           SKY/WX    TMP DP  RH WIND       PRES   REMARKS
PLATTSBURGH    PTCLDY    67  56  67 NW10      30.17R
SARANAC LAKE   CLOUDY    59  56  89 VRB5      30.22R
MASSENA        CLEAR     70  54  56 NW5       30.20S
OGDENSBURG*    CLEAR     73  55  53 N5        30.20R
POTSDAM*       PTCLDY    70  57  64 NW6       30.21R
WATERTOWN      CLEAR     66  54  65 SW7       30.23R
FT DRUM        CLEAR     67  57  69 W8        30.22
ALBANY         MOCLDY    71  53  52 NW14      30.21R
GLENS FALLS    MOCLDY    70  54  56 W6        30.18R

$$
NHZ002-005-011-290000-
_____NEW HAMPSHIRE_____


CITY           SKY/WX    TMP DP  RH WIND       PRES   REMARKS
LEBANON        CLOUDY    71  53  52 NW7       30.16R
KEENE          PTCLDY    75  54  46 NW12G17   30.15R
MT WASHINGTON  LGT RAIN  45  45 100 NW33        N/A  VSB 0
PLYMOUTH       CLOUDY    71  61  71 W12G20    30.12R
WHITEFIELD     CLOUDY    67  56  67 W3        30.15R

$$

_____REGIONAL QUEBEC LOCATIONS_____


CITY           SKY/WX    TMP DP  RH WIND       PRES   REMARKS
MONTREAL       MOCLDY    66  61  82 VRB2      30.16R
QUEBEC CITY    PTCLDY    68  57  68 NW9       30.10R
SHERBROOKE     CLOUDY    63 N/A N/A W6        30.13R

_____REGIONAL ONTARIO LOCATIONS_____


CITY           SKY/WX    TMP DP  RH WIND       PRES   REMARKS
OTTAWA         PTCLDY    70  54  56 W13       30.20R

______KEY______
VSB  - VISIBILITY IN MILES
WCI  - WIND CHILL INDEX
HX   - HEAT INDEX
$$



USA.gov is the U.S. government's official web portal to all federal, state and local government web resources and services.